FW4773 Weather Reports


Display with metric or nautical units.
time (UTC)temp
F
wind
direction
speed
MPH
gust
MPH
rain 1hr
in
rain 24hr
in
rain mn
in
humidity
%
barometer
mb
20260508010002 52 195 0.0 0.0 0.00 0.16 0.16 76 1013.0
20260508004557 53 208 0.0 0.0 0.00 0.16 0.16 74 1012.7
20260508003103 54 216 0.0 0.0 0.00 0.16 0.16 73 1012.7
20260508001557 55 226 0.0 1.0 0.00 0.16 0.16 71 1012.5
20260508000052 56 198 1.0 4.0 0.00 0.16 0.16 67 1012.3
20260507234547 57 219 1.0 3.0 0.00 0.16 0.16 65 1012.1
20260507233046 58 214 1.0 4.0 0.00 0.16 0.16 64 1011.8
20260507231544 59 210 2.0 5.0 0.00 0.16 0.16 62 1011.5
20260507230057 59 192 2.0 5.0 0.00 0.16 0.16 62 1011.5
20260507224542 59 217 2.0 5.0 0.00 0.16 0.16 59 1011.4
20260507223111 59 229 1.0 6.0 0.00 0.16 0.16 61 1011.3
20260507221535 59 211 3.0 6.0 0.00 0.16 0.16 57 1011.3
20260507220033 60 222 4.0 7.0 0.00 0.16 0.16 57 1011.3
20260507214531 61 191 2.0 5.0 0.00 0.16 0.16 57 1011.3
20260507213029 61 175 1.0 3.0 0.00 0.16 0.16 57 1011.4
20260507211527 61 160 1.0 4.0 0.00 0.16 0.16 58 1011.4
20260507210034 60 214 1.0 5.0 0.00 0.16 0.16 59 1011.4
20260507204523 60 214 5.0 8.0 0.00 0.16 0.16 59 1011.4
20260507203031 60 202 2.0 5.0 0.00 0.16 0.16 59 1011.6
20260507201517 59 217 2.0 7.0 0.00 0.16 0.16 62 1011.4
20260507200033 59 231 2.0 5.0 0.00 0.16 0.16 59 1011.4
20260507194511 60 148 1.0 5.0 0.00 0.16 0.16 58 1011.5
20260507193029 59 179 2.0 5.0 0.00 0.16 0.16 58 1012.2
20260507191609 58 212 3.0 10.0 0.00 0.16 0.16 60 1012.5
20260507190009 58 210 4.0 7.0 0.00 0.16 0.16 61 1012.0
20260507184509 58 200 3.0 5.0 0.00 0.16 0.16 61 1012.8
20260507183005 58 139 0.0 4.0 0.00 0.16 0.16 63 1013.0
20260507181606 57 196 3.0 5.0 0.00 0.16 0.16 61 1012.9
20260507180057 57 88 0.0 3.0 0.00 0.16 0.16 66 1012.9
20260507174602 57 184 1.0 2.0 0.00 0.16 0.16 64 1013.5
20260507173058 59 87 0.0 2.0 0.00 0.16 0.16 58 1013.4
20260507171601 58 211 0.0 5.0 0.00 0.16 0.16 58 1013.9
20260507170051 59 53 0.0 3.0 0.00 0.16 0.16 56 1013.6
20260507164547 58 201 0.0 1.0 0.00 0.16 0.16 60 1014.1
20260507163044 58 314 0.0 2.0 0.00 0.16 0.16 58 1014.3
20260507161551 57 184 0.0 3.0 0.00 0.16 0.16 56 1014.5
20260507160043 56 319 0.0 1.0 0.00 0.16 0.16 61 1014.5
20260507154543 56 7 0.0 4.0 0.00 0.18 0.16 60 1014.8
20260507153041 56 351 0.0 4.0 0.00 0.18 0.16 58 1014.8
20260507151536 56 310 1.0 5.0 0.00 0.18 0.16 61 1014.9
20260507150040 55 322 0.0 6.0 0.00 0.18 0.16 61 1015.0
20260507144531 56 3 1.0 5.0 0.00 0.26 0.16 62 1015.3
20260507143028 56 37 2.0 8.0 0.00 0.26 0.16 60 1015.3
20260507141525 56 358 2.0 7.0 0.00 0.26 0.16 61 1015.2
20260507140021 56 30 3.0 7.0 0.00 0.26 0.16 62 1015.4
20260507134519 55 24 4.0 8.0 0.00 0.26 0.16 64 1015.6
20260507133017 55 340 1.0 7.0 0.00 0.26 0.16 68 1015.5
20260507131523 55 101 2.0 8.0 0.00 0.26 0.16 70 1015.2
20260507130012 54 47 1.0 4.0 0.00 0.26 0.16 72 1015.5
20260507124509 55 11 1.0 7.0 0.00 0.26 0.16 71 1015.6
20260507123005 55 68 3.0 6.0 0.00 0.26 0.16 73 1015.3
20260507121504 55 353 1.0 5.0 0.00 0.26 0.16 76 1015.1
20260507114602 54 321 0.0 3.0 0.00 0.26 0.16 82 1015.2
20260507113056 54 357 0.0 0.0 0.00 0.26 0.16 83 1015.1
20260507111550 0 0.0 0.0 0.00 0.26 0.16 1015.0
20260507110044 0 0.0 0.0 0.00 0.26 0.16 1014.9
20260507104539 0 0.0 0.0 0.00 0.26 0.16 1014.6
20260507103033 0 351 0.0 4.0 0.00 0.26 0.16 1014.6
20260507101539 53 342 0.0 3.0 0.00 0.26 0.16 86 1014.3
20260507100044 53 21 0.0 2.0 0.00 0.26 0.16 88 1014.4
20260507094527 53 4 0.0 2.0 0.00 0.26 0.16 88 1014.5
20260507093025 53 5 0.0 0.0 0.00 0.26 0.16 88 1014.1
20260507091522 54 328 0.0 2.0 0.00 0.26 0.16 88 1014.2
20260507090020 54 46 1.0 5.0 0.00 0.26 0.16 87 1014.1
20260507084516 54 32 2.0 4.0 0.00 0.26 0.16 87 1014.1
20260507083013 55 298 0.0 3.0 0.00 0.26 0.16 88 1014.1
20260507081511 55 318 0.0 5.0 0.00 0.26 0.16 87 1013.5
20260507080006 55 344 1.0 7.0 0.00 0.26 0.16 87 1013.5
20260507074505 55 343 1.0 8.0 0.00 0.26 0.16 88 1013.1
20260507073104 55 49 1.0 8.0 0.00 0.26 0.16 90 1013.1
20260507071557 56 309 0.0 12.0 0.00 0.26 0.16 91 1012.6
20260507070055 56 316 0.0 5.0 0.00 0.26 0.16 91 1012.9
20260507064552 56 35 2.0 5.0 0.00 0.26 0.16 91 1012.6
20260507063051 56 319 3.0 10.0 0.02 0.26 0.16 91 1012.2
20260507061645 57 315 2.0 8.0 0.07 0.26 0.16 90 1012.3
20260507060041 57 354 1.0 8.0 0.13 0.26 0.16 90 1012.6
20260507054541 58 319 0.0 4.0 0.15 0.26 0.16 90 1012.7
20260507053032 59 295 1.0 6.0 0.14 0.24 0.14 90 1012.5
20260507051528 60 229 0.0 2.0 0.09 0.19 0.09 89 1012.8
20260507050033 61 104 0.0 2.0 0.02 0.12 0.02 85 1012.2
20260507044523 63 307 2.0 6.0 0.01 0.11 0.01 81 1012.8
20260507043013 64 224 0.0 2.0 0.00 0.10 0.00 79 1012.5
20260507041523 64 21 1.0 3.0 0.00 0.10 0.00 79 1012.3
20260507040006 64 8 2.0 10.0 0.00 0.10 0.10 79 1012.0
20260507034504 65 46 2.0 14.0 0.00 0.10 0.10 83 1012.2
20260507033002 65 17 0.0 2.0 0.00 0.10 0.10 87 1011.9
20260507031600 65 15 0.0 2.0 0.00 0.10 0.10 87 1011.7
20260507030100 65 340 0.0 1.0 0.00 0.10 0.10 88 1011.7
20260507024616 65 2 1.0 4.0 0.00 0.10 0.10 89 1011.5
20260507023054 65 207 0.0 0.0 0.00 0.10 0.10 89 1011.4
20260507021553 65 207 0.0 0.0 0.00 0.10 0.10 89 1011.2
20260507020106 65 207 0.0 1.0 0.00 0.10 0.10 88 1011.3
20260507014602 65 207 0.0 1.0 0.00 0.10 0.10 88 1011.2
20260507013050 65 207 0.0 1.0 0.00 0.10 0.10 88 1011.8
20260507011545 65 202 0.0 0.0 0.00 0.10 0.10 88 1011.9
20260507010146 65 202 0.0 0.0 0.00 0.10 0.10 88 1011.7